Theta_e
302 301 302 302 302 303 303 303 304 303 304 306 308 307 304 305 310 311 310 310 310 311 317 318 319 321 320 322 323 315 317 318 321 321 322 316 318 322 326 324 329 334 332 335 338
303 299 299 301 302 302 302 302 302 303 302 303 307 308 303 307 309 310 310 310 309 309 311 314 318 319 318 321 322 317 318 317 318 319 319 314 315 316 325 330 334 334 333 335 339
296 295 295 296 299 300 300 301 301 302 302 303 304 308 305 306 309 309 309 309 309 309 312 312 313 319 320 319 321 319 320 316 318 319 315 313 314 315 322 322 329 334 335 339 341
296 296 296 296 297 297 299 299 299 301 302 303 303 306 308 306 309 310 308 308 309 309 314 314 315 319 320 321 320 322 320 320 319 319 319 315 313 314 316 319 324 329 336 337 341
297 297 297 297 298 298 300 300 300 300 301 302 302 303 306 306 308 311 312 312 309 310 314 314 317 319 319 320 320 321 320 320 319 319 318 318 313 314 315 316 325 335 338 339 343
298 298 298 298 298 298 298 300 296 299 301 302 303 303 303 306 306 307 310 312 310 310 313 313 315 318 318 317 318 316 316 317 316 318 318 317 313 315 317 317 327 336 337 337 337
297 298 298 298 297 298 298 298 300 295 300 301 303 302 305 305 306 307 308 310 312 311 313 313 315 315 316 315 314 315 316 316 317 318 316 316 315 313 316 323 329 335 335 334 336
299 298 297 297 297 296 298 298 298 295 295 300 303 302 301 305 305 305 307 312 312 313 312 312 314 313 313 315 314 315 314 319 317 318 317 315 321 315 315 315 323 328 335 335 336
299 299 299 299 299 297 297 298 297 297 298 301 302 302 303 305 304 307 309 311 312 312 313 311 312 312 310 310 312 312 316 315 317 317 316 315 317 316 316 316 316 317 331 335 334
298 298 298 300 299 299 297 298 297 300 301 301 303 302 302 306 303 308 309 309 311 312 313 312 312 308 307 310 313 314 314 315 316 315 315 316 315 314 314 314 315 316 315 317 333
299 298 298 298 299 298 298 297 299 300 299 300 301 303 303 306 305 307 308 308 310 311 312 311 310 309 307 307 311 312 313 314 313 312 313 315 315 314 313 312 313 318 315 315 315
299 298 298 298 298 297 298 296 300 298 299 300 301 303 304 304 306 307 308 309 310 311 311 311 311 307 308 309 310 311 312 312 311 310 312 311 312 311 311 311 311 313 315 316 314
299 298 298 298 298 297 297 298 300 300 300 298 302 301 301 304 306 307 307 308 308 309 310 312 309 308 308 308 308 308 310 311 312 309 309 307 306 308 307 309 311 311 312 310 310
299 298 298 299 298 297 297 298 298 299 292 295 304 302 302 304 306 306 308 307 307 308 309 308 308 310 309 308 308 308 307 308 308 311 312 303 307 305 306 307 306 310 310 308 308
299 298 298 299 298 297 298 297 296 298 291 295 302 302 300 303 305 307 306 306 306 307 307 308 308 309 310 309 307 308 308 307 306 306 305 304 303 304 303 304 305 303 304 306 307
299 298 298 299 298 298 296 295 297 287 290 291 299 303 302 303 305 307 306 306 306 305 305 305 306 307 308 308 307 306 306 305 305 305 308 304 302 303 302 303 303 305 305 305 306
299 298 299 299 298 298 296 296 288 288 288 294 301 302 304 305 306 307 306 306 305 302 301 305 306 306 307 309 308 306 307 309 307 303 306 302 302 303 303 304 304 304 301 304 304
299 298 300 299 298 297 296 289 288 281 282 293 300 301 303 304 305 306 307 307 306 303 303 303 308 306 307 309 309 306 306 307 303 303 306 303 305 303 304 302 301 302 301 301 302
299 299 299 298 296 294 295 286 287 285 296 299 297 297 301 303 304 305 306 305 305 303 302 304 305 305 307 307 308 308 307 304 304 296 306 305 304 305 305 303 301 299 300 300 300
298 299 298 297 295 296 288 290 284 290 296 297 294 296 297 301 302 302 304 303 305 304 303 304 306 305 307 307 307 307 304 307 302 303 304 305 305 303 307 305 302 299 299 299 300
299 298 297 296 296 295 285 280 287 293 296 295 296 293 300 300 302 303 301 301 301 303 303 301 301 306 307 306 307 307 306 305 304 303 304 304 304 306 305 304 303 300 300 300 300
297 295 296 296 291 284 281 287 294 295 295 297 296 297 296 300 302 300 298 300 299 299 304 304 301 306 306 305 304 306 306 306 305 303 302 306 305 304 303 302 302 301 301 301 300
296 296 296 295 286 280 285 292 294 294 295 296 297 299 301 296 298 301 297 298 300 302 304 303 299 302 305 303 303 307 306 307 307 305 304 304 304 303 303 303 302 301 301 300 300
296 291 295 295 292 286 286 287 293 294 295 296 298 300 301 298 298 300 301 300 300 302 302 301 299 298 299 301 300 305 306 305 300 300 306 304 305 304 303 302 302 302 301 300 300
297 290 293 293 291 288 291 292 289 291 294 297 297 298 300 298 299 300 300 300 300 300 300 297 298 299 298 298 300 299 303 305 305 302 300 302 304 305 303 301 301 302 302 300 300
296 295 295 293 293 292 291 292 293 290 295 296 295 297 296 297 298 298 300 300 301 299 299 297 295 294 295 296 299 299 300 301 297 297 297 298 300 301 300 301 301 301 302 302 302
296 296 296 296 292 290 291 295 295 295 296 295 296 296 295 294 294 294 295 294 295 297 298 295 290 291 292 291 292 294 296 301 301 300 297 298 300 298 300 300 302 303 302 301 302
Wind_Speed
14 15 14 15 16 17 18 20 22 23 20 24 21 23 22 22 21 21 26 28 23 20 6 7 21 29 17 4 10 4 1 5 5 6 4 3 3 6 6 12 4 8 5 4 24
14 16 16 15 16 17 18 20 22 23 24 22 22 22 20 20 21 27 28 19 22 15 25 13 14 23 13 12 5 5 3 8 3 0 3 3 3 6 7 9 9 10 9 9 26
14 15 16 17 16 17 19 19 20 22 21 21 27 20 17 16 15 28 24 22 22 20 16 19 13 13 12 12 8 6 4 4 2 6 3 2 1 2 11 4 10 12 18 24 28
14 15 16 15 15 17 19 21 20 20 22 19 21 26 13 16 9 4 10 22 24 23 18 16 16 10 7 9 18 10 8 11 2 5 4 2 7 2 4 5 7 9 21 29 31
16 16 16 16 18 19 19 21 20 19 22 20 20 19 12 20 23 3 3 8 24 27 24 19 17 11 6 11 12 7 4 12 10 10 6 2 5 3 5 3 5 15 23 28 29
16 15 16 17 18 17 19 19 21 19 21 19 19 18 19 17 20 18 4 2 25 28 26 21 11 12 8 6 9 4 2 7 10 13 12 2 3 3 4 5 10 17 25 26 26
17 17 19 19 18 18 20 21 22 21 18 18 18 20 18 22 8 20 17 10 13 25 25 22 7 10 9 7 12 7 3 7 10 8 5 5 5 6 7 8 8 19 24 21 22
19 18 19 20 20 20 21 22 23 22 17 15 14 16 8 21 10 16 17 12 10 18 25 24 11 6 5 16 6 6 4 3 8 2 6 5 6 10 11 8 6 13 20 22 25
18 18 19 21 21 20 21 23 24 22 16 12 12 11 7 6 24 15 19 12 10 10 18 25 16 4 6 7 4 3 2 3 0 3 4 3 3 3 9 12 9 9 14 22 20
18 18 18 19 20 19 20 22 21 14 11 7 8 6 7 3 23 19 17 14 9 13 15 19 8 3 3 4 7 5 4 3 2 3 1 4 9 8 5 9 12 12 11 11 16
17 17 17 18 18 17 19 22 15 5 14 4 10 4 3 2 18 18 15 13 9 10 4 13 4 9 5 4 9 11 3 3 5 3 2 5 10 11 10 4 8 10 12 12 14
16 14 15 16 13 13 13 8 10 14 7 10 8 6 3 8 9 14 14 10 6 4 2 5 6 6 8 6 7 7 5 4 4 7 3 0 11 15 8 4 6 10 15 14 11
14 12 13 13 10 10 9 6 9 12 5 8 3 5 7 4 3 16 16 4 6 3 3 8 4 9 7 6 6 1 8 5 3 5 4 6 4 9 4 7 9 7 6 6 8
12 11 11 10 7 6 5 6 8 9 4 9 5 6 7 8 0 17 14 3 2 6 4 3 2 10 9 7 6 4 5 5 8 6 1 1 3 4 5 6 4 16 9 4 5
12 10 8 6 5 6 7 11 5 3 4 13 5 5 11 5 1 9 15 2 5 5 4 1 4 6 6 5 6 4 6 5 4 5 2 5 2 5 2 4 4 8 8 5 6
12 9 8 4 4 4 9 8 4 6 2 8 5 3 3 5 6 6 10 6 6 5 5 1 2 5 6 4 8 8 5 5 4 3 3 6 5 4 3 2 4 4 6 6 5
13 8 4 1 2 5 6 6 5 5 4 9 5 6 2 4 1 3 5 4 4 5 1 3 4 4 2 7 2 3 14 2 2 1 4 1 2 5 4 4 3 3 8 8 6
15 8 6 2 1 4 3 5 7 3 5 4 3 4 4 1 2 4 7 4 2 3 4 4 3 3 0 4 6 3 4 4 6 3 3 1 4 3 3 6 7 8 9 9 8
16 11 8 5 1 2 3 5 6 5 3 5 6 5 5 3 2 3 3 4 2 2 6 4 2 2 2 3 4 4 2 2 6 1 2 3 3 4 3 5 8 8 8 8 5
18 14 9 3 3 3 5 0 2 2 5 3 2 2 3 5 5 4 3 3 1 3 1 3 5 2 2 6 1 5 7 2 2 3 2 1 1 2 4 4 3 4 7 7 5
15 6 5 5 5 5 3 5 3 5 2 2 2 3 2 2 3 4 1 3 4 4 5 3 3 0 2 4 1 3 2 3 4 3 3 3 2 1 2 5 4 5 4 3 3
6 3 4 5 5 3 2 3 3 4 4 1 1 2 2 2 2 2 2 2 4 3 2 2 4 4 3 2 2 1 3 3 3 2 1 2 2 2 2 4 7 6 4 3 1
5 3 2 2 3 2 4 2 2 3 3 3 2 3 1 2 1 2 2 3 4 3 2 2 2 3 3 3 3 3 2 3 4 3 2 3 2 2 3 1 3 5 5 4 2
4 2 2 3 4 5 2 2 3 3 3 4 3 2 2 1 2 2 2 4 4 3 8 5 3 3 4 2 3 4 3 3 5 3 2 3 1 4 5 6 4 5 5 5 4
3 0 1 0 1 2 2 4 2 3 3 2 3 3 2 2 2 1 3 2 5 7 4 4 4 3 5 4 3 2 5 5 3 3 4 3 4 5 4 2 5 5 7 9 8
2 4 4 2 0 2 5 2 1 4 2 2 2 5 2 3 1 2 4 2 1 5 4 4 2 2 6 8 6 3 3 6 3 2 1 3 4 4 10 10 7 3 9 12 10
6 8 3 4 2 3 2 2 1 2 2 5 3 2 11 5 8 10 17 16 8 3 3 2 4 3 2 4 4 4 4 4 2 2 6 4 6 4 5 11 11 15 8 9 10
Wind_Direction
335 331 327 318 307 302 303 299 303 296 293 290 261 261 258 253 251 246 239 242 243 238 231 196 209 226 237 193 200 138 160 213 195 172 239 185 192 127 138 265 193 206 219 241 174
330 332 325 322 317 315 314 310 308 308 290 278 279 254 252 249 252 252 247 248 235 228 227 229 202 195 197 207 189 142 233 194 205 242 276 316 170 169 138 200 218 221 205 199 170
335 338 333 325 322 322 317 313 308 306 305 291 268 263 244 244 259 262 253 237 228 219 225 226 243 191 197 170 178 162 202 224 113 50 15 304 277 166 138 190 215 202 179 168 169
332 330 329 330 329 326 323 323 313 305 303 295 271 256 245 222 226 222 223 225 217 204 197 190 211 188 186 177 207 199 209 290 72 6 355 348 317 109 230 150 203 225 180 169 174
324 321 320 319 319 318 319 318 319 309 306 295 293 263 271 214 219 126 132 205 194 195 196 195 187 187 156 184 155 206 150 249 324 330 334 13 264 233 179 152 189 179 171 174 175
319 317 321 320 324 321 325 315 322 314 308 296 295 294 276 230 225 217 182 253 189 190 193 200 202 194 144 141 162 123 249 272 305 324 304 85 287 267 167 192 170 181 181 180 183
309 306 313 312 316 319 325 321 316 315 306 302 300 293 274 222 230 212 230 216 191 190 189 195 188 178 159 146 142 113 315 279 260 284 299 37 288 241 160 142 170 196 191 186 194
305 304 306 306 313 319 319 320 318 317 302 293 298 290 266 229 211 203 211 189 196 203 202 186 175 147 172 122 78 126 360 213 234 266 281 106 250 249 190 154 149 193 203 195 196
298 302 305 306 313 319 317 317 322 310 298 295 291 287 265 222 209 190 198 183 175 158 183 185 189 182 143 111 87 11 166 227 344 114 337 143 228 344 220 200 199 199 209 203 202
296 300 309 305 311 320 318 324 326 309 302 280 240 241 274 206 190 189 183 193 172 173 142 159 168 152 120 133 187 154 156 221 176 40 66 299 290 295 322 194 205 217 212 215 210
293 299 301 308 314 321 325 341 350 337 335 285 306 262 325 64 194 195 181 177 172 169 132 163 139 199 128 129 114 117 94 155 97 50 30 341 293 298 304 284 229 214 222 219 222
288 295 300 312 318 318 332 1 328 331 311 326 302 277 267 345 187 197 177 162 149 161 114 141 205 152 148 133 127 123 111 252 112 114 208 230 294 291 293 268 243 213 206 220 225
278 284 299 313 318 316 338 345 339 331 300 315 316 330 297 25 160 175 180 146 123 114 148 147 184 156 152 141 125 69 179 192 150 114 327 348 259 249 278 249 224 228 202 179 193
267 272 291 311 314 335 351 340 332 328 44 320 350 16 347 350 85 185 174 113 89 128 95 140 85 157 149 167 149 124 183 203 135 113 68 304 301 234 215 250 209 223 225 166 164
247 256 279 293 301 335 325 321 332 308 38 320 334 353 343 338 29 158 186 277 132 120 106 43 111 137 155 176 153 146 143 140 117 117 148 166 215 258 146 227 253 69 116 132 152
227 228 261 281 303 321 328 324 320 41 293 332 340 359 28 338 358 128 161 138 124 76 66 98 99 135 176 139 166 135 97 59 68 108 240 192 173 279 113 8 69 81 98 104 142
201 198 224 218 358 320 329 331 29 98 294 325 346 5 45 336 287 148 146 112 131 106 114 62 351 323 130 111 93 123 148 90 58 351 216 338 129 253 23 20 300 217 138 146 151
176 183 161 141 331 322 335 46 62 257 252 320 328 310 330 235 317 122 133 128 1 104 102 141 178 249 322 139 156 150 169 150 168 170 187 155 216 293 47 53 61 108 112 120 134
162 146 129 117 57 86 343 50 193 208 292 330 326 27 12 333 327 82 125 121 180 178 133 132 66 308 74 106 142 170 183 143 106 232 127 179 236 96 90 66 78 92 105 97 104
152 132 104 87 83 94 66 212 187 238 329 4 61 58 30 321 343 39 53 0 61 34 54 179 103 11 102 112 324 161 155 92 22 137 190 17 272 119 6 14 142 143 129 122 109
140 93 130 111 103 51 118 229 296 297 321 15 15 336 293 314 3 359 53 37 7 354 52 133 83 8 86 20 95 89 91 48 109 84 144 125 260 152 340 311 216 178 166 136 108
87 64 131 132 54 49 91 200 329 327 338 7 306 252 265 325 333 24 139 44 352 317 83 27 109 96 81 18 344 75 139 128 126 258 31 99 293 337 53 347 141 174 175 158 116
74 67 151 129 99 340 322 326 302 324 321 328 254 224 247 199 57 65 53 354 6 30 107 180 15 92 41 11 13 80 84 107 99 73 190 114 273 3 325 234 181 180 205 199 185
111 60 62 47 78 124 129 328 311 280 279 272 287 275 224 39 354 126 119 37 16 41 50 63 67 127 162 146 131 130 114 74 99 111 157 197 290 238 274 276 280 253 225 228 239
71 48 100 89 341 114 164 149 340 344 288 276 309 335 311 76 63 120 72 86 41 353 50 77 98 55 49 10 65 122 141 136 121 154 133 221 201 248 224 229 283 305 233 229 234
115 136 87 70 121 61 349 337 148 288 325 357 82 358 18 88 0 160 119 55 52 18 63 4 122 103 28 3 30 64 87 109 105 96 41 94 275 302 326 343 9 298 233 238 244
112 117 107 33 63 67 272 351 340 269 61 51 0 64 51 27 57 77 94 80 74 89 109 63 119 62 282 346 7 352 225 175 158 160 141 166 236 335 326 324 338 337 314 260 258